Simultaneous Nadir Overpasses (SNOs) Predictions

Prediction of SNOs between GOES-16 and NOAA-20 Satellite Orbit:

Table of predicted SNOs for the next 14.0 days since TLE Epoch: 8/28/2021
Index Date Time (GOES-16) GOES-16 Lat,Lon NOAA-20 Lat,Lon Distance(km) Time Diff (sec)
1 08/29/2021 18:27:03 0.13, -75.22 -0.02, -75.97 85.54 80
2 08/30/2021 18:10:58 0.13, -75.22 1.01, -71.44 431.67 80
3 09/01/2021 06:32:46 -0.14, -75.23 0.17, -76.71 168.11 80
4 09/02/2021 06:11:20 -0.14, -75.24 -0.80, -72.17 349.13 80
5 09/03/2021 18:33:16 0.15, -75.26 -0.37, -77.48 253.73 80
6 09/04/2021 18:17:12 0.15, -75.27 0.66, -72.95 264.00 80
7 09/06/2021 06:38:59 -0.16, -75.29 0.52, -78.22 334.46 80
8 09/07/2021 06:17:35 -0.16, -75.30 -0.52, -73.69 183.52 80
9 09/08/2021 18:39:31 0.16, -75.33 -0.65, -79.00 418.33 80
10 09/09/2021 18:23:26 0.16, -75.35 0.33, -74.46 100.16 80
